Kinkaid Lake Weather Center

Moon Phase Calendar



Kinkaid Lake Water Level
Online Cameras

 


      

Current Conditions in Jackson
3/1/2024 5:20:08 PM

46°F
Feels Like 43
Clouds
Humidity
71%
Pressure
30.09"
Wind
6.9 mph (S)
Dew Point
37°F
UV Index
0/10 (Low)
Visibility
6 mi

Hourly Forecast

Date & Time Fri, Mar 1
5:00 PM
Fri, Mar 1
6:00 PM
Fri, Mar 1
7:00 PM
Fri, Mar 1
8:00 PM
Fri, Mar 1
9:00 PM
Fri, Mar 1
10:00 PM
Fri, Mar 1
11:00 PM
Sat, Mar 2
12:00 AM
Sat, Mar 2
1:00 AM
Sat, Mar 2
2:00 AM
Sat, Mar 2
3:00 AM
Sat, Mar 2
4:00 AM
Sat, Mar 2
5:00 AM
Sat, Mar 2
6:00 AM
Sat, Mar 2
7:00 AM
Sat, Mar 2
8:00 AM
Sat, Mar 2
9:00 AM
Sat, Mar 2
10:00 AM
Sat, Mar 2
11:00 AM
Sat, Mar 2
12:00 PM
Sat, Mar 2
1:00 PM
Sat, Mar 2
2:00 PM
Sat, Mar 2
3:00 PM
Sat, Mar 2
4:00 PM
Sat, Mar 2
5:00 PM
Sat, Mar 2
6:00 PM
Sat, Mar 2
7:00 PM
Sat, Mar 2
8:00 PM
Sat, Mar 2
9:00 PM
Sat, Mar 2
10:00 PM
Sat, Mar 2
11:00 PM
Sun, Mar 3
12:00 AM
Sun, Mar 3
1:00 AM
Sun, Mar 3
2:00 AM
Sun, Mar 3
3:00 AM
Sun, Mar 3
4:00 AM
Sun, Mar 3
5:00 AM
Sun, Mar 3
6:00 AM
Sun, Mar 3
7:00 AM
Sun, Mar 3
8:00 AM
Sun, Mar 3
9:00 AM
Sun, Mar 3
10:00 AM
Sun, Mar 3
11:00 AM
Sun, Mar 3
12:00 PM
Sun, Mar 3
1:00 PM
Sun, Mar 3
2:00 PM
Sun, Mar 3
3:00 PM
Sun, Mar 3
4:00 PM
Condition
Clouds

Clouds

Clouds

Clouds

Clouds

Clouds

Clouds

Clouds

Clear

Clear

Clear

Clear

Clear

Clear

Clear

Clear

Clear

Clear

Clear

Clear

Clear

Clear

Clear

Clear

Clear

Clear

Clear

Clear

Clear

Clear

Clear

Clear

Clear

Clear

Clear

Clear

Clear

Clouds

Clouds

Clouds

Clouds

Clouds

Clear

Clear

Clouds

Clouds

Clouds

Clouds
Temperature 46°F46°F45°F45°F44°F44°F44°F42°F41°F41°F40°F40°F40°F40°F40°F44°F49°F53°F56°F59°F61°F62°F62°F62°F59°F54°F52°F51°F50°F50°F50°F50°F50°F50°F50°F49°F50°F50°F50°F54°F58°F63°F66°F69°F71°F72°F72°F71°F
Feels Like 44°F44°F43°F42°F42°F41°F41°F39°F38°F37°F37°F37°F36°F36°F36°F41°F46°F51°F54°F57°F59°F60°F61°F60°F58°F52°F51°F50°F49°F47°F46°F49°F49°F46°F46°F46°F45°F45°F49°F53°F57°F62°F66°F68°F70°F71°F72°F71°F
Cloudiness 100%91%79%74%74%75%80%70%0%0%0%0%0%0%0%0%0%0%0%0%0%0%0%0%0%0%0%0%0%0%0%0%0%0%2%4%4%20%43%22%15%12%10%10%23%53%60%70%
Visibility 6 mi6 mi6 mi6 mi6 mi6 mi6 mi6 mi6 mi6 mi6 mi6 mi6 mi6 mi6 mi6 mi6 mi6 mi6 mi6 mi6 mi6 mi6 mi6 mi6 mi6 mi6 mi6 mi6 mi6 mi6 mi6 mi6 mi6 mi6 mi6 mi6 mi6 mi6 mi6 mi6 mi6 mi6 mi6 mi6 mi6 mi6 mi6 mi
Precipitation 0%0%0%0%0%0%0%0%0%0%0%0%0%0%0%0%0%0%0%0%0%0%0%0%0%0%0%0%0%0%0%0%0%0%0%0%0%0%0%0%0%0%0%0%0%0%0%0%
Humidity 71%72%75%80%85%89%89%92%93%94%94%93%93%93%93%84%75%67%61%57%53%52%51%54%61%73%79%82%84%86%86%86%87%89%91%92%92%92%91%85%77%70%65%60%56%54%55%58%
Dew Point 37°F37°F38°F39°F40°F41°F41°F40°F39°F39°F39°F38°F38°F38°F38°F40°F41°F42°F43°F43°F44°F44°F44°F45°F46°F45°F46°F46°F46°F46°F46°F46°F46°F47°F47°F47°F47°F47°F48°F49°F51°F53°F54°F54°F54°F55°F55°F56°F
Pressure 30.09"30.09"30.09"30.12"30.12"30.12"30.12"30.12"30.12"30.12"30.12"30.12"30.15"30.15"30.15"30.18"30.18"30.15"30.15"30.12"30.09"30.06"30.03"30.03"30.03"30.03"30.06"30.06"30.06"30.03"30.03"30.03"30.03"30"30"30"30"30"30"30"30"29.97"29.97"29.94"29.91"29.91"29.88"29.88"
Wind Speed 5.4 mph4.5 mph5.1 mph5.4 mph4.8 mph4.9 mph4.9 mph5.4 mph5.6 mph5.6 mph5.3 mph5.2 mph5.2 mph5.3 mph5.3 mph5.4 mph6.4 mph6.6 mph7.7 mph9.3 mph10.7 mph11 mph11.1 mph10.7 mph8.7 mph7.4 mph7.5 mph7.5 mph7.6 mph7.5 mph8.3 mph9.3 mph9.6 mph9.6 mph9.2 mph9.5 mph10 mph10.9 mph12 mph13.4 mph15.7 mph17.4 mph18.7 mph19.4 mph19.9 mph19.1 mph17.4 mph16.8 mph
Wind
Direction
194°
SSW
171°
S
166°
SSE
175°
S
178°
S
173°
S
175°
S
181°
S
190°
S
200°
SSW
197°
SSW
190°
S
183°
S
173°
S
172°
S
176°
S
178°
S
174°
S
172°
S
176°
S
182°
S
183°
S
176°
S
175°
S
168°
SSE
158°
SSE
161°
SSE
159°
SSE
159°
SSE
159°
SSE
158°
SSE
162°
SSE
166°
SSE
167°
SSE
171°
S
171°
S
173°
S
174°
S
175°
S
178°
S
184°
S
186°
S
189°
S
190°
S
191°
S
191°
S
191°
S
187°
S

Daily Forecast

Date High Low Precip. Humidity
Today
Mar 1

Snow
47 °F
35 °F
80%
73%
Saturday
Mar 2

Clear
62 °F
40 °F
0%
57%
Sunday
Mar 3

Clear
72 °F
49 °F
0%
60%
Monday
Mar 4

Clouds
76 °F
59 °F
0%
63%
Tuesday
Mar 5

Rain
65 °F
56 °F
98%
84%
Wednesday
Mar 6

Rain
59 °F
53 °F
69%
82%
Thursday
Mar 7

Rain
62 °F
46 °F
95%
75%
Friday
Mar 8

Rain
64 °F
48 °F
100%
71%
Saturday
Mar 9

Clear
52 °F
38 °F
0%
41%
Sunday
Mar 10

Clouds
52 °F
39 °F
0%
43%
Monday
Mar 11

Rain
58 °F
36 °F
20%
48%
Tuesday
Mar 12

Clouds
67 °F
49 °F
3%
56%
Wednesday
Mar 13

Rain
62 °F
54 °F
100%
75%
Thursday
Mar 14

Rain
67 °F
48 °F
100%
37%
Friday
Mar 15

Clouds
64 °F
49 °F
0%
38%
Saturday
Mar 16

Rain
47 °F
41 °F
100%
86%

Temperature 8-14 Day Outlook



Precipitation 8-14 Day Outlook




Quick Links
Kinkaid Lake News
Kinkaid Lake Photos
Kinkaid Lake Videos




About Us
Contact Us
Site Map
Search Site
Advertise With Us
   
Kinkaid.USLakes.info
THE KINKAID LAKE WEBSITE

Copyright 2024, Lakes Online
Privacy    |    Legal